Location: Poprad
(49.0500°N, 20.3000°E)
Time: 05:45:27
(UTC+02:00)

BEESAT - Visible Passes

Search period start: 16 April 2024 00:00
Search period end: 26 April 2024 00:00
Orbit: 693 x 702 km, 98.5° (Epoch: 15 April)

Date Brightness Start Highest point End Pass type
(mag) Time Alt. Az. Time Alt. Az. Time Alt. Az.
16 Apr ? 22:48:00 10° NNE 22:52:14 68° NE 22:52:14 68° NE visible
17 Apr ? 00:26:50 10° NNW 00:29:48 17° WNW 00:31:02 15° WNW visible
17 Apr ? 21:52:17 10° NE 21:55:21 23° ENE 21:55:21 23° ENE visible
17 Apr ? 23:29:28 10° N 23:33:59 45° WNW 23:34:08 45° WNW visible
18 Apr ? 22:33:02 10° NNE 22:37:15 54° ENE 22:37:15 54° ENE visible
19 Apr ? 00:11:24 10° N 00:14:57 22° WNW 00:16:03 20° W visible
19 Apr ? 21:37:43 10° NE 21:40:21 18° E 21:40:21 18° E visible
19 Apr ? 23:14:20 10° N 23:19:01 62° WNW 23:19:09 62° W visible
20 Apr ? 00:54:47 10° NW 00:55:42 11° NW 00:56:37 10° WNW visible
20 Apr ? 22:18:07 10° NNE 22:22:15 40° E 22:22:15 40° E visible
20 Apr ? 23:56:04 10° N 00:00:04 28° WNW 00:01:03 26° W visible
21 Apr ? 21:23:29 10° ENE 21:25:21 13° E 21:25:21 13° E visible
21 Apr ? 22:59:15 10° NNE 23:04:00 84° WNW 23:04:08 82° WSW visible
22 Apr ? 00:38:31 10° NNW 00:40:54 14° NW 00:42:56 11° W visible
22 Apr ? 22:03:17 10° NNE 22:07:14 30° E 22:07:14 30° E visible
22 Apr ? 23:40:48 10° N 23:45:09 37° WNW 23:46:02 34° W visible
23 Apr ? 22:44:12 10° NNE 22:48:56 71° ESE 22:49:07 70° ESE visible
24 Apr ? 00:22:53 10° NNW 00:26:03 18° WNW 00:27:54 15° W visible
24 Apr ? 21:48:34 10° NE 21:52:12 22° E 21:52:12 22° E visible
24 Apr ? 23:25:36 10° N 23:30:10 50° WNW 23:30:59 44° WSW visible
25 Apr ? 22:29:13 10° NNE 22:33:50 51° E 22:34:04 51° ESE visible
